Date String (YYYY-MM-DD hh:mm:ss) UTC,Instrument flags,absolute air pressure of the measurement (hPa),sample flow rate (lpm),inlet stack bypass flow (lpm),air temperature of the measurement (°C),ambient temperature measured by the external sensor (°C),aerosol sample conditioner tube jacket temperature (°C),OPC LED temperature (°C),internal box temperature (°C),relative humidity of the measurement (%),span deviation,mass concentration of particles derived from Lorenz-Mie calculation of OPC scattering (μg/m³),mass concentration of particles derived from Lorenz-Mie calculation of OPC scattering (μg/m³),mass concentration of particles derived from Lorenz-Mie calculation of OPC scattering (μg/m³)
DateTimeUTC,F1_M11,P_M11,Q1_M11,Q2_M11,T1_M11,T2_M11,T3_M11,T4_M11,T5_M11,U1_M11,ZSPAN_M11,X0_M11,X2_M11,X1_M11
2024-02-11 12:00:00,SystemResetWarning,0828.2,5.00,000.00,018.4,018.0,000.0,026.9,020.0,14.8,0000.0,0007.50,0005.67,0005.56
2024-02-11 12:01:00,SystemResetWarning,0828.2,4.99,000.00,018.4,017.8,000.0,026.9,020.0,14.6,0000.0,0007.55,0005.66,0005.55
2024-02-11 12:02:00,SystemResetWarning,0828.2,4.99,000.00,018.3,017.7,000.0,026.9,020.0,14.7,0000.0,0007.58,0005.68,0005.56
2024-02-11 12:03:00,SystemResetWarning,0828.2,4.99,000.00,018.3,017.7,000.0,026.9,020.0,14.8,0000.0,0007.70,0005.72,0005.58
2024-02-11 12:04:00,SystemResetWarning,0828.2,5.02,000.00,018.3,017.6,000.0,026.9,020.0,14.8,0000.0,0007.72,0005.74,0005.59
2024-02-11 12:05:00,SystemResetWarning,0828.2,5.00,000.00,018.3,017.5,000.0,026.9,020.0,14.8,0000.0,0007.72,0005.75,0005.60
2024-02-11 12:06:00,SystemResetWarning,0828.2,4.99,000.00,018.3,017.5,000.0,027.0,020.0,14.7,0000.0,0007.65,0005.71,0005.57
2024-02-11 12:07:00,SystemResetWarning,0828.2,5.02,000.00,018.2,017.4,000.0,027.0,020.0,14.7,0000.0,0007.61,0005.70,0005.57
2024-02-11 12:08:00,SystemResetWarning,0828.2,4.98,000.00,018.2,017.4,000.0,027.0,020.0,14.7,0000.0,0007.61,0005.70,0005.57
2024-02-11 12:09:00,SystemResetWarning,0828.2,5.00,000.00,018.3,017.8,000.0,027.1,020.3,14.7,0000.0,0007.58,0005.68,0005.55
2024-02-11 12:10:00,SystemResetWarning,0828.2,5.01,000.00,018.5,018.6,000.0,027.1,020.7,14.6,0000.0,0007.41,0005.62,0005.51
2024-02-11 12:11:00,SystemResetWarning,0828.2,4.99,000.00,018.7,019.1,000.0,027.2,021.0,14.4,0000.0,0007.53,0005.59,0005.47
2024-02-11 12:12:00,SystemResetWarning,0828.2,4.99,000.00,018.7,018.9,000.0,027.1,020.7,14.3,0000.0,0007.48,0005.57,0005.46
2024-02-11 12:13:00,SystemResetWarning,0828.2,5.01,000.00,018.6,018.7,000.0,027.0,020.3,14.3,0000.0,0007.44,0005.55,0005.44
2024-02-11 12:14:00,SystemResetWarning,0828.2,5.00,000.00,018.6,018.4,000.0,026.9,020.1,14.4,0000.0,0007.36,0005.52,0005.43
2024-02-11 12:15:00,SystemResetWarning,0828.2,4.99,000.00,018.5,018.2,000.0,027.0,020.0,14.4,0000.0,0007.37,0005.55,0005.46
2024-02-11 12:16:00,SystemResetWarning,0828.2,4.99,000.00,018.4,018.0,000.0,027.0,020.0,14.4,0000.0,0007.40,0005.58,0005.49
2024-02-11 12:17:00,SystemResetWarning,0828.2,5.02,000.00,018.4,017.8,000.0,027.0,020.0,14.4,0000.0,0007.45,0005.63,0005.55
2024-02-11 12:18:00,SystemResetWarning,0828.2,5.00,000.00,018.4,017.7,000.0,027.1,020.0,14.3,0000.0,0007.49,0005.66,0005.58
2024-02-11 12:19:00,SystemResetWarning,0828.2,4.99,000.00,018.4,017.6,000.0,027.1,020.0,14.2,0000.0,0007.53,0005.70,0005.61
2024-02-11 12:20:00,SystemResetWarning,0828.2,5.00,000.00,018.3,017.5,000.0,027.1,020.0,14.0,0000.0,0007.54,0005.71,0005.61
2024-02-11 12:21:00,SystemResetWarning,0828.2,5.00,000.00,018.3,017.5,000.0,027.0,020.0,13.7,0000.0,0007.55,0005.70,0005.60
2024-02-11 12:22:00,SystemResetWarning,0828.2,5.01,000.00,018.3,017.4,000.0,027.0,020.0,13.4,0000.0,0007.34,0005.71,0005.61
2024-02-11 12:23:00,SystemResetWarning,0828.1,5.00,000.00,018.3,017.4,000.0,027.0,020.0,13.1,0000.0,0007.23,0005.69,0005.59
2024-02-11 12:24:00,SystemResetWarning,0828.1,5.00,000.00,018.3,017.4,000.0,027.0,020.0,13.1,0000.0,0007.17,0005.66,0005.57
2024-02-11 12:25:00,SystemResetWarning,0828.2,5.01,000.00,018.4,017.9,000.0,027.1,020.3,12.9,0000.0,0007.08,0005.60,0005.52
2024-02-11 12:26:00,SystemResetWarning,0828.2,4.99,000.00,018.5,018.7,000.0,027.1,020.8,12.7,0000.0,0006.94,0005.50,0005.42
2024-02-11 12:27:00,SystemResetWarning,0828.2,4.98,000.00,018.7,018.8,000.0,027.1,020.7,12.5,0000.0,0006.77,0005.40,0005.31
2024-02-11 12:28:00,SystemResetWarning,0828.1,5.01,000.00,018.6,018.6,000.0,027.0,020.4,12.5,0000.0,0006.57,0005.27,0005.19
2024-02-11 12:29:00,SystemResetWarning,0828.1,5.00,000.00,018.5,018.4,000.0,026.9,020.2,12.5,0000.0,0006.44,0005.16,0005.07
2024-02-11 12:30:00,SystemResetWarning,0828.1,5.00,000.00,018.5,018.2,000.0,026.9,020.0,12.7,0000.0,0006.22,0005.02,0004.94
2024-02-11 12:31:00,SystemResetWarning,0828.1,5.00,000.00,018.4,018.0,000.0,026.9,020.0,12.8,0000.0,0006.05,0004.90,0004.82
2024-02-11 12:32:00,SystemResetWarning,0828.1,5.00,000.00,018.4,017.9,000.0,026.9,020.0,12.7,0000.0,0005.89,0004.78,0004.70
2024-02-11 12:33:00,SystemResetWarning,0828.1,5.00,000.00,018.4,017.8,000.0,026.9,020.0,12.7,0000.0,0005.67,0004.65,0004.58
2024-02-11 12:34:00,SystemResetWarning,0828.1,5.00,000.00,018.3,017.7,000.0,026.9,020.0,12.7,0000.0,0005.51,0004.55,0004.48
2024-02-11 12:35:00,SystemResetWarning,0828.1,5.00,000.00,018.3,017.6,000.0,026.9,020.0,12.7,0000.0,0005.40,0004.45,0004.38
2024-02-11 12:36:00,SystemResetWarning,0828.1,5.00,000.00,018.3,017.5,000.0,026.9,020.0,12.6,0000.0,0005.36,0004.38,0004.31
2024-02-11 12:37:00,SystemResetWarning,0828.1,5.00,000.00,018.3,017.5,000.0,026.9,020.0,12.6,0000.0,0005.29,0004.34,0004.27
2024-02-11 12:38:00,SystemResetWarning,0828.1,5.00,000.00,018.3,017.4,000.0,026.9,020.0,12.6,0000.0,0005.30,0004.30,0004.23
2024-02-11 12:39:00,SystemResetWarning,0828.1,5.01,000.00,018.2,017.4,000.0,026.9,020.0,12.6,0000.0,0005.29,0004.29,0004.20
2024-02-11 12:40:00,SystemResetWarning,0828.1,5.02,000.00,018.3,017.9,000.0,027.0,020.3,12.6,0000.0,0005.21,0004.25,0004.18
2024-02-11 12:41:00,SystemResetWarning,0828.2,4.99,000.00,018.5,018.6,000.0,027.1,020.8,12.4,0000.0,0005.15,0004.23,0004.16
2024-02-11 12:42:00,SystemResetWarning,0828.2,5.00,000.00,018.7,019.1,000.0,027.1,020.9,12.2,0000.0,0005.07,0004.19,0004.13
2024-02-11 12:43:00,SystemResetWarning,0828.1,4.99,000.00,018.7,018.9,000.0,027.1,020.7,12.2,0000.0,0005.01,0004.18,0004.12
2024-02-11 12:44:00,SystemResetWarning,0828.1,5.01,000.00,018.7,018.7,000.0,027.0,020.4,12.2,0000.0,0005.03,0004.17,0004.11
2024-02-11 12:45:00,SystemResetWarning,0828.1,5.01,000.00,018.6,018.5,000.0,026.9,020.2,12.2,0000.0,0005.05,0004.16,0004.10
2024-02-11 12:46:00,SystemResetWarning,0828.0,5.00,000.00,018.5,018.3,000.0,026.9,020.1,12.2,0000.0,0005.03,0004.16,0004.09
2024-02-11 12:47:00,SystemResetWarning,0828.1,5.00,000.00,018.5,018.1,000.0,026.9,020.0,12.3,0000.0,0004.96,0004.15,0004.08
2024-02-11 12:48:00,SystemResetWarning,0828.1,5.00,000.00,018.4,017.9,000.0,026.9,020.0,12.2,0000.0,0004.97,0004.15,0004.08
2024-02-11 12:49:00,SystemResetWarning,0828.1,5.00,000.00,018.4,017.8,000.0,026.9,020.0,12.2,0000.0,0004.89,0004.14,0004.09
2024-02-11 12:50:00,SystemResetWarning,0828.1,5.00,000.00,018.4,017.7,000.0,026.9,020.0,12.2,0000.0,0004.85,0004.13,0004.08
2024-02-11 12:51:00,SystemResetWarning,0828.1,5.00,000.00,018.3,017.6,000.0,026.9,020.0,12.2,0000.0,0004.85,0004.13,0004.08
2024-02-11 12:52:00,SystemResetWarning,0828.1,5.01,000.00,018.3,017.5,000.0,026.9,020.0,12.2,0000.0,0004.85,0004.13,0004.08
2024-02-11 12:53:00,SystemResetWarning,0828.1,5.00,000.00,018.3,017.4,000.0,026.9,020.0,12.1,0000.0,0004.91,0004.14,0004.08
2024-02-11 12:54:00,SystemResetWarning,0828.1,5.00,000.00,018.3,017.4,000.0,026.9,020.0,12.1,0000.0,0004.93,0004.15,0004.09
2024-02-11 12:55:00,SystemResetWarning,0828.1,5.00,000.00,018.3,017.6,000.0,027.0,020.2,12.1,0000.0,0004.90,0004.14,0004.09
2024-02-11 12:56:00,SystemResetWarning,0828.2,5.00,000.00,018.4,018.4,000.0,027.1,020.6,12.0,0000.0,0004.91,0004.15,0004.09
2024-02-11 12:57:00,SystemResetWarning,0828.2,5.00,000.00,018.7,019.1,000.0,027.1,021.0,11.8,0000.0,0004.92,0004.15,0004.09
2024-02-11 12:58:00,SystemResetWarning,0828.2,5.00,000.00,018.8,019.1,000.0,027.1,020.9,11.7,0000.0,0004.92,0004.15,0004.09
2024-02-11 12:59:00,SystemResetWarning,0828.2,4.98,000.00,018.7,018.9,000.0,027.0,020.6,11.7,0000.0,0004.90,0004.15,0004.09
